Notices

What's New in latest Release from April 7th, 2021:

- Updated Glossary, including Speed of Maximum Gust, and Total Hourly Precipitation

- Updated national and regional climate services offices contacts and prices information

- Addition of station inventory lists for 1981-2010, 1971-2000, and 1961-1990 Normals.

If you haven't already, please take our survey and provide feedback about our website: https://eccc.sondage-survey.ca/f/LanguageSelection.aspx?s=442ca660-fcf1-47c0-95a9-59707d6fd709

Hourly Data Report for October 11, 2017

VICTORIA UNIVERSITY CS
BRITISH COLUMBIA

48°27'25.200" N
123°18'16.600" W
60.10 m
1018598
71783
WYJ

Download Data

Hourly Data (October 2017)
Hourly Data Report for October 11, 2017
TIME
LST
Temp Definition
°C
Dew Point Definition
°C
Rel Hum Definition
%
Precip. Amount Definition
mm

Wind Dir Definition
10's deg

Wind Spd Definition
km/h
Visibility Definition
km
Stn Press Definition
kPa
Hmdx Definition


Wind Chill Definition


Weather Definition


00:00 5.4 4.1 92 0.0 24 3   100.60     LegendNANA
01:00 5.5 4.1 91 0.0 25 4   100.59     LegendNANA
02:00 5.7 4.1 89 0.0 22 3   100.61     LegendNANA
03:00 5.1 3.7 91 0.0 23 3   100.61     LegendNANA
04:00 6.4 5.2 92 0.0 22 3   100.62     LegendNANA
05:00 7.3 5.9 91 0.0 17 5   100.64     LegendNANA
06:00 7.4 5.8 90 0.0 18 3   100.66     LegendNANA
07:00 7.2 5.5 89 0.0 18 2   100.71     LegendNANA
08:00 8.3 6.0 86 0.0   0   100.78     LegendNANA
09:00 9.3 5.6 78 0.0 1 4   100.83     LegendNANA
10:00 10.7 6.2 74 0.0 5 4   100.85     LegendNANA
11:00 10.2 5.4 72 0.0 4 5   100.88     LegendNANA
12:00 10.4 6.3 76 0.0 15 3   100.92     LegendNANA
13:00 7.9 5.3 84 3.1 30 6   100.94     LegendNANA
14:00 11.6 5.3 65 0.0 23 3   100.92     LegendNANA
15:00 10.8 6.2 73 0.0 14 3   100.95     LegendNANA
16:00 9.7 6.4 80 0.0 14 2   100.96     LegendNANA
17:00 9.0 5.6 79 0.0 16 4   100.97     LegendNANA
18:00 8.2 6.4 89 0.0 18 3   101.01     LegendNANA
19:00 6.5 5.8 95 0.0 26 2   101.02     LegendNANA
20:00 6.9 6.3 96 0.0 24 2   101.02     LegendNANA
21:00 7.5 6.3 92 0.0 23 4   101.03     LegendNANA
22:00 6.9 5.8 92 0.0 24 2   101.03     LegendNANA
23:00 6.1 5.0 92 0.0 25 3   101.03     LegendNANA

Notes on Data Quality.

Legend

  • E = Estimated
  • M = Missing
  • NA = Not Available*
  • [empty] = Indicates an unobserved value
Date modified: